Regional Weather Roundup
Issued by NWS Sioux Falls, SD

Home | Current Version | Previous Version | Text Only | Print | Product List | Glossary Off
Versions: 1 2 3 4 5 6 7 8 9 10 11 12 13 14 15 16 17 18 19 20 21 22 23 24 25 26 27 28 29 30 31 32 33 34 35 36 37 38 39 40 41 42 43 44 45 46 47 48 49 50

000
ASUS43 KFSD 040702
RWRFSD

WEATHER ROUNDUP FOR SE SOUTH DAKOTA/SW MINNESOTA/NW IOWA
NATIONAL WEATHER SERVICE SIOUX FALLS SD
200 AM CDT MON MAY 04 2015

NOTE: "FAIR" INDICATES FEW OR NO CLOUDS BELOW 12,000 FEET WITH NO
SIGNIFICANT WEATHER AND OR OBSTRUCTIONS TO VISIBILITY.


SDZ038>040-050-052>070-040800-
SOUTHEAST SOUTH DAKOTA

CITY           SKY/WX    TMP DP  RH WIND       PRES   REMARKS
BROOKINGS      CLEAR     46  30  53 CALM      30.08R
CHAMBERLAIN    NOT AVBL
HURON          CLEAR     40  27  59 CALM      30.08R
MADISON        FAIR      45  28  53 N12       30.07R
MITCHELL       PTCLDY    45  35  68 NW6       30.08R
SIOUX FALLS    MOCLDY    51  34  52 NE3       30.04R
WINNER         FAIR      51  27  39 E3        30.09R
YANKTON        PTCLDY    54  34  47 N10       30.03R
$$

MNZ071-072-080-081-089-090-097-098-040800-
SOUTHWEST MINNESOTA

CITY           SKY/WX    TMP DP  RH WIND       PRES   REMARKS
FAIRMONT       MOCLDY    55  39  54 NW10      29.97S
JACKSON        PTCLDY    55  32  41 N6        30.00S
LUVERNE        MOCLDY    55  28  35 N6        30.04R
MARSHALL       CLEAR     46  25  42 NW10      30.04R
MONTEVIDEO     CLEAR     48  30  49 N6        30.05R
REDWOOD FALLS  PTCLDY    54  31  41 NW6       30.02R
TRACY          CLEAR     53  28  38 NW12      30.03R
WORTHINGTON    CLOUDY    55  27  33 N7        30.03R
$$

IAZ001>003-012>014-020>022-031-032-NEZ013-014-SDZ071-040800-
NORTHWEST IOWA

CITY           SKY/WX    TMP DP  RH WIND       PRES   REMARKS
DENISON        CLOUDY    61  54  77 NE12G21   29.90S
ESTHERVILLE    CLOUDY    57  41  55 N14       29.97S
LE MARS        MOCLDY    59  39  47 N12       29.98F
SIOUX CITY     CLOUDY    63  41  44 N9        29.97R
SPENCER        MOCLDY    56  42  59 N14       29.98S
$$

ABBREVIATIONS USED IN REMARKS
   TC - TEMPERATURE IN CELSIUS
  WCI - WIND CHILL INDEX
   HX - HEAT INDEX
  VSB - VISIBILITY




USA.gov is the U.S. government's official web portal to all federal, state and local government web resources and services.